Погода в Сафоновке

Россия / Белгородская область     51°05′39″N   36°23′49″E
темп.,
°C
ветер,
м/с
пор.,
м/с
влажн.,
%
обл.,
%
осадки,
мм/ч
давл.,
гПа
погр.,
м
8 марта, пн
пн800:00−1з81594100 0.4 1007842
03:00−2зюз7139298 0.6 1007617
06:00−1зюз7139296 0.1 1006713
09:00−1з7129398 0.4 1006842
12:00−1зсз61085100 1.9 1007896
15:000з5882100 2.1 1007967
18:00−3зсз378681 0.3 1008186
21:00−4зсз369090 0.4 1010154
9 марта, вт
вт900:00−6зсз239237 0.0 1010111
03:00−6зсз359564 0.1 1011201
06:00−7сз489390 0.1 1012361
09:00−8сз479191 0.1 1014356
12:00−6сз578597 0.1 1016674
15:00−6ссз578298 0.2 1018883
18:00−8ссз5782100 0.1 1019877
21:00−10ссз249279 0.1 1022157
10 марта, ср
ср1000:00−10сз359574 0.0 1023235
03:00−11сз349478 0.1 1025162
06:00−13сз349421 0.0 1026151
09:00−12ссз238915 0.0 1027245
12:00−9сз347886 0.0 1027574
15:00−7сз337291 0.0 1027736
18:00−8с2290100 0.1 1026216
21:00−9всв3593100 0.2 1028251
11 марта, чт
чт1100:00−12всв5793100 0.2 1029314
03:00−14всв4683100 0.5 1031272
06:00−16всв468090 0.0 1031233
09:00−15всв357746 0.0 1033266
12:00−11в34590 0.0 1033522
15:00−9вюв34540 0.0 1032753
18:00−10в23660 0.0 1032112
21:00−12в33770 0.0 103358
12 марта, пт
пт1200:00−11юв35730 0.0 1033110
03:00−12ююв48750 0.0 1032184
06:00−12ююв510735 0.0 1031260
09:00−9ююв7126349 0.0 1030447
12:00−6ю81255100 0.0 1028658
15:00−4ю81253100 0.0 1027879
18:00−5ю81551100 0.0 1024696
21:00−4ю81554100 0.1 1024839